DMSP 5D-2 F11 DEB

Satellite information

Favourite Embed

Satellite Type and Status

DEBRISIN ORBIT

Key statistics

Satellite DMSP 5D-2 F11 DEB at a glance.

Uptime

12335

Days in orbit

Revolutions

≈ 14.5

Per day

Orbit

SSO

Sun Synchronous Orbit

Inclination

98.7

Latest

Satellite identification and parameters

Extended collection of information and parameters for DMSP 5D-2 F11 DEB.

Object identification

Identified? True

Debris? True

Object name: DMSP 5D-2 F11 DEB

International designator: 1991-082CP

Object number (NORAD): 35532

Object ID (CCSDS): 35532

Country: UNITED STATES OF AMERICA (US)

Current information (Y/N): Y

RCS size: SMALL

Orbital parameters

Period: 99.613 minutes

Inclination: 98.7087 deg

SMA: 7118.203 km

Apoapsis: 797.39 km

Periapsis: 682.747 km

RAAN: 30.949 deg

Eccentricy: 0.00805284

Argument of periapsis: 175.9237 deg

Mean anomaly: 184.2628 deg

Mean motion: 14.45596822 rev/day

Mean motion (dot): 0.00027325 rev/day2

B* drag term: 0.0074166249 1/REarth

Two-line elements (TLE)

Creation date: Sept. 4, 2025, 10:13 a.m.

Reference frame: TEME

Reference center: EARTH

Epoch: Sept. 4, 2025, 3:07 a.m. UTC

TLE line 0: 0 DMSP 5D-2 F11 DEB

TLE line 1: 1 35532U 91082CP 25247.13051915 .00027325 00000-0 74166-2 0 9998

TLE line 2: 2 35532 98.7087 30.9490 0080528 175.9237 184.2628 14.45596822625584

Live tracking on map

Real-time ground track for satellite DMSP 5D-2 F11 DEB.

In-orbit conjunctions

A list of the most updated potential collisions computed for object DMSP 5D-2 F11 DEB.

Target Orbit TCA Probability of collision Miss distance Type
CZ-6A DEB LEO 2025-02-01 00:44:17 0.0001268031 86.0 (m) DEBRIS
CZ-6A DEB LEO 2025-01-13 05:52:08 0.0001675321 932.0 (m) DEBRIS
CZ-6A R/B LEO 2025-01-12 07:12:22 0.0001299025 835.0 (m) ROCKET BODY
CZ-6A DEB LEO 2024-12-13 15:30:01 0.0001365207 203.0 (m) DEBRIS
METEOR 1-5 DEB LEO 2024-08-15 15:16:16 0.0001494735 171.0 (m) DEBRIS

Associated space launch

Military meteorological satellite

DMSP 5D-2 F11 DEB was lifted into orbit during the mission ‘Atlas E | DMSP-5D2 F11’, on board a Atlas E space rocket.

The launch took place on Nov. 28, 1991, 1:23 p.m. from Space Launch Complex 3W.

For more information about the launch, click the button.

Launch to space Atlas E | DMSP-5D2 F11
Atlas E | DMSP-5D2 F11

Agency: N/A

Status: Launch Successful

Launch date: Nov. 28, 1991, 1:23 p.m. UTC

Rocket: Atlas E

Launch pad: Space Launch Complex 3W

Location: Vandenberg SFB, CA, USA

...

Latest news about this satellite

There are no fresh news available about this satellite. Check back as we update our databases every day.


Newsletter sign-up

Weekly statistics, charts and insights to help you stay on top of the space industry.